Waarnemingen

Advertentie
Mijn weer
Cap Ferret, Frankrijk (7500): temperatuur & dauwpunt: 19.02.2018 02:00:00 - 25.02.2018 02:00:00 (CET)Cap Ferret, Frankrijk (7500): windsnelheid & windstoten: 19.02.2018 02:00:00 - 25.02.2018 02:00:00 (CET)Cap Ferret, Frankrijk (7500): windrichting: 19.02.2018 02:00:00 - 25.02.2018 02:00:00 (CET)Cap Ferret, Frankrijk (7500): luchtdruk: 19.02.2018 02:00:00 - 25.02.2018 02:00:00 (CET)Cap Ferret, Frankrijk (7500): zicht: 19.02.2018 02:00:00 - 25.02.2018 02:00:00 (CET)Cap Ferret, Frankrijk (7500): neerslag: 19.02.2018 02:00:00 - 25.02.2018 02:00:00 (CET)
Datum & Tijd tt [°C] td [°C] ff [km/u] ff [kn] fx [km/u] fx [kn] dd ppp [hPa] vv [km] rr [mm]
25.02.2018 02:00:00 3,7 -0,7 18 10 27 15 NO 1013,0 - 0,0
25.02.2018 01:00:00 4,0 -0,2 15 8 27 14 NO 1012,8 7 0,0
25.02.2018 00:00:00 4,5 -0,1 16 8 32 17 NO 1013,0 - 0,0
24.02.2018 23:00:00 4,9 0,3 15 8 30 16 NNO 1012,9 - 0,0
24.02.2018 22:00:00 3,3 -0,3 11 6 17 9 NNO 1012,7 8 0,0
24.02.2018 21:00:00 4,1 0,1 10 6 16 9 NNO 1012,5 - 0,0
24.02.2018 20:00:00 4,6 0,2 11 6 21 11 N 1012,4 - 0,0
24.02.2018 19:00:00 5,8 0,7 13 7 20 11 NNW 1011,9 10 0,0
24.02.2018 18:00:00 6,5 0,2 10 6 21 11 NNW 1011,4 - 0,0
24.02.2018 17:00:00 6,8 -0,2 12 6 20 11 NNW 1011,2 - 0,0
24.02.2018 16:00:00 7,4 -0,8 14 7 23 12 NNW 1011,3 10 0,0
24.02.2018 15:00:00 7,8 -1,5 13 7 23 12 NNW 1011,1 - 0,0
24.02.2018 14:00:00 7,7 -2,1 7 4 17 9 N 1011,2 - 0,0
24.02.2018 13:00:00 5,9 -3,0 9 5 15 8 WNW 1011,4 10 0,0
24.02.2018 12:00:00 6,1 -1,8 4 2 13 7 O 1011,1 - 0,0
24.02.2018 11:00:00 4,1 -1,9 5 3 13 7 O 1011,4 - 0,0
24.02.2018 10:00:00 1,4 -2,2 8 5 22 12 ONO 1011,4 8 0,0
24.02.2018 09:00:00 0,7 -2,4 10 5 21 11 ONO 1011,1 - 0,0
24.02.2018 08:00:00 -0,7 -3,2 16 9 24 13 NO 1010,6 - 0,0
24.02.2018 07:00:00 -0,8 -3,5 6 3 17 9 O 1010,3 8 0,0
24.02.2018 06:00:00 -0,1 -3,3 11 6 17 9 O 1010,0 - 0,0
24.02.2018 05:00:00 -0,3 -3,3 10 5 22 12 ONO 1009,9 - 0,0
24.02.2018 04:00:00 0,2 -3,0 14 8 25 13 ONO 1009,8 7 0,0
24.02.2018 03:00:00 0,8 -2,8 16 9 26 14 NO 1009,9 - 0,0
24.02.2018 02:00:00 1,3 -2,8 18 10 29 15 NO 1010,0 - 0,0
24.02.2018 01:00:00 1,7 -3,0 18 10 35 19 NO 1010,2 7 0,0
24.02.2018 00:00:00 2,3 -3,0 20 11 31 17 NO 1010,4 - 0,0
23.02.2018 23:00:00 2,8 -3,1 16 9 29 16 NNO 1010,8 - 0,0
23.02.2018 22:00:00 2,9 -3,0 17 9 31 17 NO 1011,1 8 0,0
23.02.2018 21:00:00 3,1 -2,8 11 6 28 15 NO 1010,9 - 0,0
23.02.2018 20:00:00 3,1 -3,9 10 5 19 10 ONO 1010,9 - 0,0
23.02.2018 19:00:00 3,5 -4,2 9 5 20 11 O 1010,7 10 0,0
23.02.2018 18:00:00 4,0 -4,0 9 5 24 13 ONO 1010,4 - 0,0
23.02.2018 17:00:00 4,6 -3,7 14 8 25 14 NO 1010,2 - 0,0
23.02.2018 16:00:00 4,9 -3,9 10 5 24 13 ONO 1010,4 12 0,0
23.02.2018 15:00:00 4,9 -4,1 10 6 26 14 NO 1010,6 - 0,0
23.02.2018 14:00:00 5,4 -3,2 12 6 23 12 ONO 1011,0 - 0,0
23.02.2018 13:00:00 4,2 -2,9 12 7 26 14 NO 1011,5 10 0,0
23.02.2018 12:00:00 4,7 -2,0 13 7 26 14 NO 1011,9 - 0,0
23.02.2018 11:00:00 3,7 -2,5 16 9 35 19 NO 1012,2 - 0,0
23.02.2018 10:00:00 2,7 -2,4 16 9 40 22 NNO 1012,2 10 0,0
23.02.2018 09:00:00 1,5 -2,8 24 13 40 21 NNO 1012,1 - 0,0
23.02.2018 08:00:00 0,8 -3,3 22 12 41 22 NNO 1012,0 - 0,0
23.02.2018 07:00:00 0,7 -3,2 20 11 36 19 NNO 1011,8 10 0,0
23.02.2018 06:00:00 1,0 -2,9 23 12 39 21 NNO 1011,7 - 0,0
23.02.2018 05:00:00 1,0 -2,8 18 10 34 18 NO 1012,0 - 0,0
23.02.2018 04:00:00 1,4 -2,7 19 10 34 18 NNO 1012,5 7 0,0
23.02.2018 03:00:00 1,8 -2,3 18 10 37 20 NO 1012,8 - 0,0
23.02.2018 02:00:00 2,3 -2,2 19 11 39 21 NNO 1013,1 - 0,0
23.02.2018 01:00:00 2,8 -2,1 22 12 41 22 NNO 1013,5 7 0,0
23.02.2018 00:00:00 3,3 -2,0 22 12 39 21 NNO 1013,7 - 0,0
22.02.2018 23:00:00 3,9 -2,3 22 12 46 25 NNO 1013,9 - 0,0
22.02.2018 22:00:00 4,7 -2,6 25 14 49 26 NNO 1013,9 8 0,0
22.02.2018 21:00:00 5,4 -2,7 26 14 45 25 NNO 1013,8 - 0,0
22.02.2018 20:00:00 5,0 -3,3 14 8 29 15 N 1013,6 - 0,0
22.02.2018 19:00:00 5,6 -4,3 16 9 34 18 N 1013,2 10 0,0
22.02.2018 18:00:00 7,2 -4,3 17 9 39 21 N 1012,7 - 0,0
22.02.2018 17:00:00 8,3 -3,6 23 12 43 23 N 1012,7 - 0,0
22.02.2018 16:00:00 8,9 -2,4 20 11 37 20 N 1013,1 10 0,0
22.02.2018 15:00:00 9,3 -1,2 20 11 31 17 NNW 1013,7 - 0,0
22.02.2018 14:00:00 8,7 -3,5 13 7 28 15 NNO 1014,3 - 0,0
22.02.2018 13:00:00 6,0 -1,9 11 6 23 12 NNO 1015,0 10 0,0
22.02.2018 12:00:00 5,5 -1,2 13 7 27 14 NNO 1015,6 - 0,0
22.02.2018 11:00:00 4,7 -1,1 14 7 32 17 NNO 1015,8 - 0,0
22.02.2018 10:00:00 2,9 -1,1 19 10 34 19 NNO 1015,8 10 0,0
22.02.2018 09:00:00 0,7 -1,9 11 6 32 17 N 1016,0 - 0,0
22.02.2018 08:00:00 1,1 -1,1 20 11 40 22 NNO 1015,6 - 0,0
22.02.2018 07:00:00 1,4 -1,0 27 14 44 24 NNO 1015,5 10 0,0
22.02.2018 06:00:00 1,6 -1,0 23 13 43 23 NNO 1015,6 - 0,0
22.02.2018 05:00:00 1,8 -0,9 22 12 40 22 NNO 1015,7 - 0,0
22.02.2018 04:00:00 2,0 -0,9 17 9 39 21 NNO 1016,2 7 0,0
22.02.2018 03:00:00 2,5 -0,9 22 12 38 21 NNO 1016,9 - 0,0
22.02.2018 02:00:00 2,6 -1,0 18 10 44 24 NNO 1016,9 - 0,0
22.02.2018 01:00:00 2,6 -1,4 19 10 34 19 N 1017,2 10 0,0
22.02.2018 00:00:00 3,0 -1,4 18 10 35 19 N 1017,6 - 0,0
21.02.2018 23:00:00 3,4 -1,2 16 9 37 20 N 1017,9 - 0,0
21.02.2018 22:00:00 4,2 -1,0 16 9 45 24 N 1018,1 7 0,0
21.02.2018 21:00:00 5,2 -0,6 21 11 42 23 NNO 1017,9 - 0,0
21.02.2018 20:00:00 5,7 -0,2 19 10 40 22 NNO 1017,7 - 0,0
21.02.2018 19:00:00 6,0 -0,7 14 8 36 20 N 1017,4 10 0,0
21.02.2018 18:00:00 7,2 -0,3 19 10 42 23 NNO 1016,8 - 0,0
21.02.2018 17:00:00 8,3 -0,5 22 12 41 22 NNO 1016,3 - 0,0
21.02.2018 16:00:00 9,2 -1,0 21 11 39 21 NNO 1016,7 13 0,0
21.02.2018 15:00:00 9,7 -0,2 18 10 38 21 NNO 1017,2 - 0,0
21.02.2018 14:00:00 9,6 -0,1 16 9 37 20 NNO 1017,8 - 0,0
21.02.2018 13:00:00 8,2 -0,6 19 11 45 24 NO 1018,4 12 0,0
21.02.2018 12:00:00 8,0 0,0 24 13 47 26 NO 1018,9 - 0,0
21.02.2018 11:00:00 7,2 0,2 23 12 48 26 NO 1019,4 - 0,0
21.02.2018 10:00:00 5,6 1,1 24 13 44 24 NNO 1019,3 8 0,0
21.02.2018 09:00:00 4,5 1,3 18 10 35 19 N 1019,1 - 0,0
21.02.2018 08:00:00 4,5 1,3 18 10 38 20 N 1018,6 - 0,0
21.02.2018 07:00:00 5,6 1,9 22 12 45 24 NO 1018,2 10 0,0
21.02.2018 06:00:00 6,3 2,7 17 9 45 24 N 1017,6 - 0,0
21.02.2018 05:00:00 6,3 2,7 25 14 46 25 N 1017,1 - 0,0
21.02.2018 04:00:00 7,0 3,1 24 13 46 25 N 1017,3 13 0,0
21.02.2018 03:00:00 6,9 3,0 26 14 50 27 N 1017,7 - 0,0
21.02.2018 02:00:00 7,4 4,2 22 12 46 25 N 1018,0 - 0,0
21.02.2018 01:00:00 8,3 5,2 22 12 60 32 N 1018,0 10 0,4
21.02.2018 00:00:00 9,6 5,9 33 18 56 31 NNW 1017,8 - 0,0
20.02.2018 23:00:00 10,2 7,3 35 19 58 31 NNW 1018,7 - 0,0
20.02.2018 22:00:00 10,6 8,2 27 15 49 26 NNW 1019,0 8 0,0
20.02.2018 21:00:00 10,8 8,6 27 15 49 26 NNW 1019,3 - 0,0
20.02.2018 20:00:00 10,9 8,5 28 15 45 25 NNW 1019,5 - 0,0
20.02.2018 19:00:00 10,6 8,4 27 14 44 24 NNW 1019,3 9 0,0
20.02.2018 18:00:00 10,8 8,2 27 14 55 30 NNW 1019,4 - 0,0
20.02.2018 17:00:00 11,0 8,2 29 15 52 28 NNW 1019,4 - 0,0
20.02.2018 16:00:00 11,3 8,2 31 17 55 30 NNW 1019,3 10 0,0
20.02.2018 15:00:00 12,0 8,8 27 15 48 26 NNW 1019,3 - 0,0
20.02.2018 14:00:00 11,5 8,5 29 16 49 26 NNW 1019,9 - 0,0
20.02.2018 13:00:00 11,1 8,5 25 14 46 25 NNW 1020,1 10 0,0
20.02.2018 12:00:00 11,1 8,5 27 14 44 24 NNW 1019,8 - 0,0
20.02.2018 11:00:00 10,7 8,5 23 12 43 23 NNW 1019,8 - 0,0
20.02.2018 10:00:00 10,4 8,3 24 13 45 25 NNW 1019,8 10 0,0
20.02.2018 09:00:00 10,3 8,6 27 15 51 27 NNW 1019,5 - 0,2
20.02.2018 08:00:00 10,3 8,6 28 15 48 26 NNW 1018,8 - 0,0
20.02.2018 07:00:00 10,2 8,6 25 14 45 24 NNW 1018,5 8 0,0
20.02.2018 06:00:00 10,1 8,5 25 13 47 25 NNW 1018,7 - 0,0
20.02.2018 05:00:00 10,3 8,9 24 13 50 27 NNW 1018,6 - 0,0
20.02.2018 04:00:00 10,4 9,3 24 13 38 20 NNW 1018,8 9 0,2
20.02.2018 03:00:00 10,6 9,5 23 13 40 22 NNW 1019,0 - 0,0
20.02.2018 02:00:00 10,7 9,8 26 14 42 23 NNW 1018,9 - 0,2
20.02.2018 01:00:00 10,8 9,9 23 12 34 18 NNW 1019,1 9 0,6
20.02.2018 00:00:00 10,7 9,8 19 10 35 19 NW 1019,1 - 0,0
19.02.2018 23:00:00 10,5 9,6 18 10 32 18 NNW 1019,2 - 0,2
19.02.2018 22:00:00 10,6 9,5 14 8 29 16 NNW 1019,4 9 0,2
19.02.2018 21:00:00 10,6 9,5 17 9 29 15 NNW 1019,4 - 0,0
19.02.2018 20:00:00 10,6 9,5 14 7 30 16 NNW 1019,3 - 0,2
19.02.2018 19:00:00 10,5 9,3 13 7 25 13 NNW 1019,5 9 0,0
19.02.2018 18:00:00 10,7 9,3 13 7 23 12 NNW 1019,1 - 0,2
19.02.2018 17:00:00 11,1 9,5 14 8 27 14 NW 1019,1 - 0,0
19.02.2018 16:00:00 11,5 9,4 16 9 27 15 NNW 1019,0 9 0,0
19.02.2018 15:00:00 11,8 9,9 8 5 13 7 WNW 1019,2 - 0,0
19.02.2018 14:00:00 11,4 9,3 7 4 13 7 WNW 1019,5 - 0,0
19.02.2018 13:00:00 11,5 9,6 6 3 11 6 WNW 1019,8 6 0,0
19.02.2018 12:00:00 10,6 9,0 2 1 9 5 NO 1020,1 - 0,0
19.02.2018 11:00:00 10,2 9,0 3 1 9 5 O 1019,8 - 0,0
19.02.2018 10:00:00 9,9 9,0 6 3 10 5 NO 1019,8 6 0,0
19.02.2018 09:00:00 9,7 8,8 6 4 11 6 NO 1019,5 - 0,0
19.02.2018 08:00:00 9,7 8,8 8 4 16 8 NO 1019,5 - 0,0
19.02.2018 07:00:00 10,0 9,1 9 5 14 8 NO 1019,3 - 0,0
19.02.2018 06:00:00 10,3 9,4 8 5 21 11 N 1019,1 - 0,0
19.02.2018 05:00:00 10,5 9,6 14 8 26 14 NNW 1019,1 - 0,4
19.02.2018 04:00:00 10,6 9,7 13 7 22 12 NNW 1019,3 6 0,6
19.02.2018 03:00:00 10,8 9,9 15 8 27 15 NW 1019,6 - 0,2
19.02.2018 02:00:00 10,9 10,0 19 11 34 19 NW 1020,0 - 0,0

tt = temperatuur
td = dauwpunt
ff = windsnelheid
fx = windstoten
dd = windrichting
ppp = luchtdruk
vv = zicht
rr = neerslag

Weerstations in de omgeving